Date String (YYYY-MM-DD hh:mm:ss) UTC,Instrument flags,absolute air pressure of the measurement (hPa),sample flow rate (lpm),inlet stack bypass flow (lpm),air temperature of the measurement (°C),ambient temperature measured by the external sensor (°C),aerosol sample conditioner tube jacket temperature (°C),OPC LED temperature (°C),internal box temperature (°C),relative humidity of the measurement (%),span deviation,mass concentration of particles derived from Lorenz-Mie calculation of OPC scattering (μg/m³),mass concentration of particles derived from Lorenz-Mie calculation of OPC scattering (μg/m³),mass concentration of particles derived from Lorenz-Mie calculation of OPC scattering (μg/m³)
DateTimeUTC,F1_M11,P_M11,Q1_M11,Q2_M11,T1_M11,T2_M11,T3_M11,T4_M11,T5_M11,U1_M11,ZSPAN_M11,X0_M11,X2_M11,X1_M11
2023-11-29 18:00:00,SystemResetWarning,0824.6,5.00,000.00,021.2,020.6,000.0,029.2,022.6,10.2,0000.0,0002.34,0001.23,0000.98
2023-11-29 18:01:00,SystemResetWarning,0824.5,5.00,000.00,021.2,020.6,000.0,029.3,022.6,10.1,0000.0,0002.25,0001.19,0000.95
2023-11-29 18:02:00,SystemResetWarning,0824.5,5.00,000.00,021.2,020.7,000.0,029.3,022.6,10.7,0000.0,0002.20,0001.17,0000.95
2023-11-29 18:03:00,SystemResetWarning,0824.5,5.00,000.00,021.2,020.7,000.0,029.3,022.6,10.0,0000.0,0002.13,0001.14,0000.96
2023-11-29 18:04:00,SystemResetWarning,0824.4,5.00,000.00,021.3,020.7,000.0,029.3,022.7,9.9,0000.0,0002.19,0001.17,0000.97
2023-11-29 18:05:00,SystemResetWarning,0824.4,5.00,000.00,021.3,020.7,000.0,029.3,022.7,9.5,0000.0,0002.21,0001.20,0001.00
2023-11-29 18:06:00,SystemResetWarning,0824.4,5.00,000.00,021.3,020.7,000.0,029.4,022.7,9.4,0000.0,0002.29,0001.24,0001.01
2023-11-29 18:07:00,SystemResetWarning,0824.4,5.00,000.00,021.3,020.8,000.0,029.4,022.7,9.2,0000.0,0002.05,0001.27,0001.02
2023-11-29 18:08:00,SystemResetWarning,0824.4,5.00,000.00,021.4,020.8,000.0,029.4,022.8,9.1,0000.0,0002.04,0001.27,0001.03
2023-11-29 18:09:00,SystemResetWarning,0824.4,5.00,000.00,021.4,020.8,000.0,029.4,022.8,8.8,0000.0,0002.00,0001.28,0001.05
2023-11-29 18:10:00,SystemResetWarning,0824.4,5.00,000.00,021.4,020.8,000.0,029.4,022.8,9.0,0000.0,0001.86,0001.28,0001.07
2023-11-29 18:11:00,SystemResetWarning,0824.4,5.01,000.00,021.4,020.9,000.0,029.5,022.8,9.2,0000.0,0001.82,0001.28,0001.08
2023-11-29 18:12:00,SystemResetWarning,0824.3,5.00,000.00,021.4,020.9,000.0,029.5,022.8,8.3,0000.0,0001.85,0001.28,0001.08
2023-11-29 18:13:00,SystemResetWarning,0824.1,5.00,000.00,021.5,020.9,000.0,029.5,022.8,8.8,0000.0,0001.89,0001.27,0001.06
2023-11-29 18:14:00,SystemResetWarning,0824.1,5.00,000.00,021.5,020.9,000.0,029.5,022.9,8.8,0000.0,0001.91,0001.29,0001.07
2023-11-29 18:15:00,SystemResetWarning,0824.2,5.00,000.00,021.5,020.9,000.0,029.5,022.9,8.7,0000.0,0001.87,0001.27,0001.06
2023-11-29 18:16:00,SystemResetWarning,0824.1,5.00,000.00,021.5,020.9,000.0,029.6,022.9,8.7,0000.0,0002.00,0001.28,0001.05
2023-11-29 18:17:00,SystemResetWarning,0824.1,5.00,000.00,021.5,020.9,000.0,029.6,022.9,8.3,0000.0,0002.00,0001.27,0001.04
2023-11-29 18:18:00,SystemResetWarning,0824.1,5.00,000.00,021.6,021.0,000.0,029.6,023.0,8.3,0000.0,0001.95,0001.25,0001.04
2023-11-29 18:19:00,SystemResetWarning,0824.0,5.00,000.00,021.6,021.0,000.0,029.6,023.0,8.6,0000.0,0002.02,0001.24,0001.04
2023-11-29 18:20:00,SystemResetWarning,0824.0,5.00,000.00,021.6,021.0,000.0,029.6,023.0,8.2,0000.0,0002.22,0001.27,0001.06
2023-11-29 18:21:00,SystemResetWarning,0824.2,5.00,000.00,021.6,021.1,000.0,029.7,023.0,8.7,0000.0,0002.20,0001.28,0001.07
2023-11-29 18:22:00,SystemResetWarning,0824.1,4.99,000.00,021.6,021.1,000.0,029.7,023.1,8.6,0000.0,0002.23,0001.32,0001.10
2023-11-29 18:23:00,SystemResetWarning,0824.0,5.00,000.00,021.7,021.1,000.0,029.7,023.1,8.1,0000.0,0002.28,0001.37,0001.13
2023-11-29 18:24:00,SystemResetWarning,0824.0,5.00,000.00,021.7,021.1,000.0,029.7,023.1,8.3,0000.0,0002.39,0001.42,0001.18
2023-11-29 18:25:00,SystemResetWarning,0824.0,5.00,000.00,021.7,021.2,000.0,029.8,023.2,8.2,0000.0,0002.95,0001.48,0001.22
2023-11-29 18:26:00,SystemResetWarning,0824.1,5.00,000.00,021.7,021.2,000.0,029.8,023.2,7.5,0000.0,0003.30,0001.57,0001.27
2023-11-29 18:27:00,SystemResetWarning,0824.2,5.00,000.00,021.8,021.2,000.0,029.8,023.2,7.8,0000.0,0003.36,0001.63,0001.34
2023-11-29 18:28:00,SystemResetWarning,0824.1,5.00,000.00,021.8,021.2,000.0,029.8,023.2,7.0,0000.0,0003.67,0001.74,0001.41
2023-11-29 18:29:00,SystemResetWarning,0824.0,5.00,000.00,021.8,021.2,000.0,029.8,023.2,6.5,0000.0,0004.69,0001.82,0001.48
2023-11-29 18:30:00,SystemResetWarning,0824.0,5.00,000.00,021.8,021.3,000.0,029.9,023.2,6.7,0000.0,0004.76,0001.92,0001.54
2023-11-29 18:31:00,SystemResetWarning,0824.0,5.00,000.00,021.9,021.3,000.0,029.9,023.3,6.6,0000.0,0004.87,0002.01,0001.58
2023-11-29 18:32:00,SystemResetWarning,0824.0,5.00,000.00,021.9,021.3,000.0,029.9,023.3,5.6,0000.0,0005.03,0002.02,0001.60
2023-11-29 18:33:00,SystemResetWarning,0823.9,5.00,000.00,021.9,021.3,000.0,029.9,023.3,5.5,0000.0,0005.04,0002.03,0001.61
2023-11-29 18:34:00,SystemResetWarning,0824.0,5.00,000.00,021.9,021.3,000.0,029.9,023.3,6.0,0000.0,0005.07,0002.04,0001.62
2023-11-29 18:35:00,SystemResetWarning,0823.9,5.00,000.00,021.9,021.3,000.0,030.0,023.3,5.7,0000.0,0005.04,0002.03,0001.59
2023-11-29 18:36:00,SystemResetWarning,0823.8,5.00,000.00,021.9,021.3,000.0,030.0,023.3,5.5,0000.0,0004.65,0001.99,0001.57
2023-11-29 18:37:00,SystemResetWarning,0823.8,5.00,000.00,022.0,021.3,000.0,030.0,023.3,5.9,0000.0,0004.40,0001.90,0001.52
2023-11-29 18:38:00,SystemResetWarning,0823.8,5.00,000.00,022.0,021.3,000.0,030.0,023.3,5.4,0000.0,0004.66,0001.82,0001.44
2023-11-29 18:39:00,SystemResetWarning,0824.0,4.99,000.00,022.0,021.3,000.0,030.0,023.4,5.2,0000.0,0004.68,0001.67,0001.35
2023-11-29 18:40:00,SystemResetWarning,0823.9,4.99,000.00,022.0,021.4,000.0,030.1,023.4,5.3,0000.0,0003.74,0001.59,0001.28
2023-11-29 18:41:00,SystemResetWarning,0823.8,5.01,000.00,022.0,021.4,000.0,030.1,023.4,5.7,0000.0,0003.66,0001.51,0001.22
2023-11-29 18:42:00,SystemResetWarning,0823.8,5.00,000.00,022.0,021.4,000.0,030.1,023.4,5.1,0000.0,0003.45,0001.40,0001.15
2023-11-29 18:43:00,SystemResetWarning,0823.8,5.01,000.00,022.0,021.4,000.0,030.1,023.4,4.9,0000.0,0003.28,0001.35,0001.11
2023-11-29 18:44:00,SystemResetWarning,0823.8,5.00,000.00,022.1,021.4,000.0,030.1,023.4,4.7,0000.0,0003.20,0001.31,0001.07
2023-11-29 18:45:00,SystemResetWarning,0823.8,5.00,000.00,022.1,021.4,000.0,030.1,023.4,5.4,0000.0,0003.16,0001.26,0001.01
2023-11-29 18:46:00,SystemResetWarning,0823.8,5.00,000.00,022.1,021.5,000.0,030.2,023.5,5.1,0000.0,0003.13,0001.22,0000.98
2023-11-29 18:47:00,SystemResetWarning,0823.8,5.00,000.00,022.1,021.5,000.0,030.2,023.5,5.3,0000.0,0003.02,0001.22,0000.95
2023-11-29 18:48:00,SystemResetWarning,0823.7,5.00,000.00,022.1,021.5,000.0,030.2,023.5,5.7,0000.0,0002.94,0001.21,0000.94
2023-11-29 18:49:00,SystemResetWarning,0823.7,5.00,000.00,022.2,021.5,000.0,030.2,023.6,5.3,0000.0,0002.78,0001.19,0000.93
2023-11-29 18:50:00,SystemResetWarning,0823.6,5.00,000.00,022.2,021.6,000.0,030.2,023.6,5.6,0000.0,0003.25,0001.19,0000.94
2023-11-29 18:51:00,SystemResetWarning,0823.6,5.01,000.00,022.2,021.6,000.0,030.3,023.6,5.8,0000.0,0004.43,0001.20,0000.93
2023-11-29 18:52:00,SystemResetWarning,0823.6,5.01,000.00,022.2,021.6,000.0,030.3,023.6,6.0,0000.0,0004.33,0001.18,0000.91
2023-11-29 18:53:00,SystemResetWarning,0823.6,5.01,000.00,022.2,021.6,000.0,030.3,023.6,6.0,0000.0,0004.36,0001.18,0000.90
2023-11-29 18:54:00,SystemResetWarning,0823.6,4.99,000.00,022.3,021.7,000.0,030.3,023.7,5.9,0000.0,0004.49,0001.21,0000.90
2023-11-29 18:55:00,SystemResetWarning,0823.6,5.00,000.00,022.3,021.7,000.0,030.3,023.7,5.7,0000.0,0004.50,0001.19,0000.88
2023-11-29 18:56:00,SystemResetWarning,0823.6,5.00,000.00,022.3,021.7,000.0,030.3,023.7,6.0,0000.0,0004.53,0001.21,0000.89
2023-11-29 18:57:00,SystemResetWarning,0823.5,5.00,000.00,022.3,021.7,000.0,030.4,023.8,5.9,0000.0,0004.50,0001.22,0000.90
2023-11-29 18:58:00,SystemResetWarning,0823.5,4.99,000.00,022.3,021.7,000.0,030.4,023.8,5.6,0000.0,0004.43,0001.20,0000.89
2023-11-29 18:59:00,SystemResetWarning,0823.5,5.00,000.00,022.4,021.8,000.0,030.4,023.8,5.4,0000.0,0004.30,0001.15,0000.87
